• In Czech Republic
  • List of Countries
  • For 7 days
  • Water Temperature
  • Satellite Maps
  • Weather Map
  • Weather Widgets
  • user-avatar
    Login

    Hourly Weather A'ali

    Today, 17 August, Friday

    Time Temperature Precipitation Wind Pressure Humidity
    00:00 +38°C° 0 mm 3 mps 748 mmHg 29%
    01:00 +38°C° 0 mm 3 mps 748 mmHg 28%
    02:00 +38°C° 0 mm 4 mps 748 mmHg 28%
    03:00 +37°C° 0 mm 4 mps 748 mmHg 29%
    04:00 +37°C° 0 mm 4 mps 748 mmHg 28%
    05:00 +37°C° 0 mm 4 mps 748 mmHg 28%
    06:00 +39°C° 0 mm 5 mps 748 mmHg 27%
    07:00 +40°C° 0 mm 5 mps 748 mmHg 24%
    08:00 +42°C° 0 mm 5 mps 748 mmHg 20%
    09:00 +46°C° 0 mm 5 mps 748 mmHg 15%
    10:00 +47°C° 0 mm 5 mps 748 mmHg 15%
    11:00 +48°C° 0 mm 5 mps 748 mmHg 14%
    12:00 +48°C° 0 mm 6 mps 748 mmHg 13%
    13:00 +48°C° 0 mm 6 mps 748 mmHg 15%
    14:00 +48°C° 0 mm 6 mps 747 mmHg 16%
    15:00 +47°C° 0 mm 6 mps 747 mmHg 18%
    16:00 +46°C° 0 mm 6 mps 747 mmHg 21%
    17:00 +44°C° 0 mm 6 mps 747 mmHg 24%
    18:00 +42°C° 0 mm 5 mps 747 mmHg 28%
    19:00 +42°C° 0 mm 5 mps 747 mmHg 29%
    20:00 +41°C° 0 mm 5 mps 747 mmHg 30%
    21:00 +40°C° 0 mm 4 mps 747 mmHg 32%
    22:00 +40°C° 0 mm 4 mps 747 mmHg 31%
    23:00 +40°C° 0 mm 4 mps 747 mmHg 30%

    Tomorrow, 18 August, Saturday

    Time Temperature Precipitation Wind Pressure Humidity
    00:00 +40°C° 0 mm 4 mps 746 mmHg 29%
    01:00 +39°C° 0 mm 5 mps 746 mmHg 29%
    02:00 +39°C° 0 mm 5 mps 746 mmHg 30%
    03:00 +39°C° 0 mm 5 mps 746 mmHg 30%
    04:00 +39°C° 0 mm 6 mps 746 mmHg 30%
    05:00 +38°C° 0 mm 6 mps 747 mmHg 30%
    06:00 +38°C° 0 mm 6 mps 747 mmHg 29%
    07:00 +40°C° 0 mm 6 mps 747 mmHg 27%
    08:00 +43°C° 0 mm 7 mps 747 mmHg 24%
    09:00 +44°C° 0 mm 7 mps 747 mmHg 22%
    10:00 +46°C° 0 mm 7 mps 747 mmHg 20%
    11:00 +48°C° 0 mm 8 mps 747 mmHg 18%
    12:00 +49°C° 0 mm 8 mps 747 mmHg 17%
    13:00 +47°C° 0 mm 7 mps 746 mmHg 17%
    14:00 +47°C° 0 mm 7 mps 746 mmHg 18%
    15:00 +47°C° 0 mm 7 mps 746 mmHg 19%
    16:00 +45°C° 0 mm 7 mps 746 mmHg 22%
    17:00 +44°C° 0 mm 6 mps 746 mmHg 26%
    18:00 +41°C° 0 mm 5 mps 746 mmHg 29%
    19:00 +41°C° 0 mm 5 mps 746 mmHg 30%
    20:00 +40°C° 0 mm 4 mps 746 mmHg 32%
    21:00 +38°C° 0 mm 3 mps 746 mmHg 33%
    22:00 +38°C° 0 mm 3 mps 746 mmHg 32%
    23:00 +38°C° 0 mm 2 mps 746 mmHg 30%

    Day after tomorrow, 19 August, Sunday

    Time Temperature Precipitation Wind Pressure Humidity
    00:00 +37°C° 0 mm 2 mps 746 mmHg 28%
    01:00 +38°C° 0 mm 3 mps 746 mmHg 27%
    02:00 +38°C° 0 mm 3 mps 746 mmHg 25%
    03:00 +38°C° 0 mm 4 mps 746 mmHg 23%
    04:00 +38°C° 0 mm 4 mps 746 mmHg 24%
    05:00 +39°C° 0 mm 5 mps 746 mmHg 24%
    06:00 +39°C° 0 mm 5 mps 746 mmHg 25%
    07:00 +40°C° 0 mm 6 mps 747 mmHg 25%
    08:00 +43°C° 0 mm 7 mps 747 mmHg 25%
    09:00 +45°C° 0 mm 7 mps 747 mmHg 25%
    10:00 +46°C° 0 mm 7 mps 747 mmHg 22%
    11:00 +47°C° 0 mm 7 mps 747 mmHg 20%
    12:00 +49°C° 0 mm 7 mps 747 mmHg 17%
    13:00 +48°C° 0 mm 8 mps 747 mmHg 19%
    14:00 +48°C° 0 mm 8 mps 746 mmHg 20%
    15:00 +46°C° 0 mm 8 mps 746 mmHg 21%
    16:00 +45°C° 0 mm 8 mps 746 mmHg 23%
    17:00 +44°C° 0 mm 7 mps 746 mmHg 25%
    18:00 +43°C° 0 mm 7 mps 745 mmHg 27%
    19:00 +41°C° 0 mm 6 mps 746 mmHg 28%
    20:00 +40°C° 0 mm 5 mps 746 mmHg 29%
    21:00 +40°C° 0 mm 4 mps 747 mmHg 30%
    22:00 +40°C° 0 mm 4 mps 747 mmHg 29%
    23:00 +38°C° 0 mm 4 mps 747 mmHg 28%

    20 August, Monday

    Time Temperature Precipitation Wind Pressure Humidity
    00:00 +38°C° 0 mm 4 mps 746 mmHg 27%
    01:00 +38°C° 0 mm 4 mps 746 mmHg 26%
    02:00 +38°C° 0 mm 4 mps 746 mmHg 25%
    03:00 +39°C° 0 mm 5 mps 746 mmHg 25%
    04:00 +39°C° 0 mm 5 mps 746 mmHg 27%
    05:00 +39°C° 0 mm 5 mps 746 mmHg 29%
    06:00 +39°C° 0 mm 5 mps 747 mmHg 31%
    07:00 +40°C° 0 mm 6 mps 747 mmHg 28%
    08:00 +42°C° 0 mm 6 mps 748 mmHg 26%
    09:00 +44°C° 0 mm 6 mps 748 mmHg 24%
    10:00 +45°C° 0 mm 6 mps 748 mmHg 22%
    11:00 +46°C° 0 mm 7 mps 748 mmHg 20%
    12:00 +49°C° 0 mm 7 mps 748 mmHg 18%
    13:00 +47°C° 0 mm 7 mps 748 mmHg 19%
    14:00 +47°C° 0 mm 7 mps 747 mmHg 19%
    15:00 +46°C° 0 mm 8 mps 747 mmHg 20%
    16:00 +45°C° 0 mm 7 mps 747 mmHg 22%
    17:00 +44°C° 0 mm 7 mps 747 mmHg 24%
    18:00 +43°C° 0 mm 7 mps 747 mmHg 26%
    19:00 +41°C° 0 mm 6 mps 747 mmHg 27%
    20:00 +40°C° 0 mm 4 mps 748 mmHg 27%
    21:00 +39°C° 0 mm 3 mps 748 mmHg 28%
    22:00 +38°C° 0 mm 3 mps 748 mmHg 26%
    23:00 +38°C° 0 mm 3 mps 748 mmHg 24%

    21 August, Tuesday

    Time Temperature Precipitation Wind Pressure Humidity
    00:00 +38°C° 0 mm 3 mps 747 mmHg 23%
    01:00 +38°C° 0 mm 3 mps 747 mmHg 23%
    02:00 +38°C° 0 mm 4 mps 747 mmHg 23%
    03:00 +39°C° 0 mm 5 mps 747 mmHg 23%
    04:00 +39°C° 0 mm 5 mps 747 mmHg 24%
    05:00 +37°C° 0 mm 5 mps 748 mmHg 24%
    06:00 +37°C° 0 mm 5 mps 748 mmHg 25%
    07:00 +40°C° 0 mm 5 mps 748 mmHg 24%
    08:00 +42°C° 0 mm 6 mps 748 mmHg 23%
    09:00 +44°C° 0 mm 6 mps 749 mmHg 23%
    10:00 +45°C° 0 mm 6 mps 749 mmHg 23%
    11:00 +46°C° 0 mm 6 mps 748 mmHg 23%
    12:00 +47°C° 0 mm 7 mps 748 mmHg 23%
    13:00 +46°C° 0 mm 7 mps 748 mmHg 25%
    14:00 +46°C° 0 mm 7 mps 747 mmHg 26%
    15:00 +45°C° 0 mm 7 mps 747 mmHg 27%
    16:00 +44°C° 0 mm 6 mps 747 mmHg 32%
    17:00 +42°C° 0 mm 5 mps 747 mmHg 36%
    18:00 +40°C° 0 mm 5 mps 747 mmHg 40%
    19:00 +40°C° 0 mm 4 mps 748 mmHg 42%
    20:00 +38°C° 0 mm 3 mps 748 mmHg 44%
    21:00 +37°C° 0 mm 2 mps 748 mmHg 46%
    22:00 +37°C° 0 mm 2 mps 748 mmHg 45%
    23:00 +36°C° 0 mm 2 mps 747 mmHg 44%

    22 August, Wednesday

    Time Temperature Precipitation Wind Pressure Humidity
    00:00 +35°C° 0 mm 1 mps 747 mmHg 43%
    01:00 +36°C° 0 mm 2 mps 747 mmHg 40%
    02:00 +36°C° 0 mm 3 mps 747 mmHg 37%
    03:00 +37°C° 0 mm 4 mps 747 mmHg 34%
    04:00 +37°C° 0 mm 4 mps 747 mmHg 32%
    05:00 +37°C° 0 mm 4 mps 747 mmHg 31%
    06:00 +37°C° 0 mm 3 mps 748 mmHg 29%
    07:00 +40°C° 0 mm 4 mps 748 mmHg 29%
    08:00 +41°C° 0 mm 5 mps 748 mmHg 30%
    09:00 +44°C° 0 mm 6 mps 749 mmHg 30%
    10:00 +45°C° 0 mm 6 mps 748 mmHg 28%
    11:00 +46°C° 0 mm 6 mps 748 mmHg 26%
    12:00 +46°C° 0 mm 6 mps 748 mmHg 24%
    13:00 +46°C° 0 mm 6 mps 747 mmHg 25%
    14:00 +46°C° 0 mm 6 mps 747 mmHg 26%
    15:00 +45°C° 0 mm 6 mps 746 mmHg 27%
    16:00 +44°C° 0 mm 6 mps 746 mmHg 30%
    17:00 +42°C° 0 mm 5 mps 747 mmHg 34%
    18:00 +41°C° 0 mm 4 mps 747 mmHg 37%
    19:00 +40°C° 0 mm 4 mps 747 mmHg 39%
    20:00 +38°C° 0 mm 3 mps 747 mmHg 40%
    21:00 +37°C° 0 mm 2 mps 748 mmHg 42%
    22:00 +37°C° 0 mm 2 mps 747 mmHg 40%
    23:00 +37°C° 0 mm 2 mps 747 mmHg 38%
    Show more